TimeEDT,TemperatureF,Dew PointF,Humidity,Sea Level PressureIn,VisibilityMPH,Wind Direction,Wind SpeedMPH,Gust SpeedMPH,PrecipitationIn,Events,Conditions,WindDirDegrees,DateUTC
12:53 AM,68.0,63.0,84,30.01,10.0,Calm,Calm,-,N/A,,Clear,0,2013-05-20 04:53:00
1:53 AM,68.0,62.1,81,29.99,10.0,SSE,5.8,-,N/A,,Clear,160,2013-05-20 05:53:00
2:53 AM,66.9,62.1,84,30.01,10.0,South,4.6,-,N/A,,Mostly Cloudy,170,2013-05-20 06:53:00
4:53 AM,64.9,62.1,90,30.01,10.0,South,5.8,-,N/A,,Scattered Clouds,170,2013-05-20 08:53:00
5:11 AM,66.2,62.6,88,30.03,10.0,South,5.8,-,N/A,,Mostly Cloudy,180,2013-05-20 09:11:00
5:53 AM,66.0,62.1,87,30.02,10.0,South,4.6,-,N/A,,Overcast,180,2013-05-20 09:53:00
6:00 AM,66.2,62.6,88,30.04,10.0,South,5.8,-,N/A,,Mostly Cloudy,190,2013-05-20 10:00:00
6:53 AM,66.0,62.1,87,30.03,10.0,Calm,Calm,-,N/A,,Scattered Clouds,0,2013-05-20 10:53:00
7:53 AM,68.0,63.0,84,30.04,10.0,South,4.6,-,N/A,,Scattered Clouds,180,2013-05-20 11:53:00
8:13 AM,69.8,64.4,83,30.07,10.0,SSW,6.9,-,N/A,,Overcast,200,2013-05-20 12:13:00
8:53 AM,70.0,64.0,81,30.06,10.0,South,4.6,-,N/A,,Overcast,180,2013-05-20 12:53:00
9:33 AM,71.6,64.4,78,30.07,10.0,Variable,5.8,-,N/A,,Partly Cloudy,0,2013-05-20 13:33:00
9:53 AM,73.0,64.9,76,30.05,10.0,South,5.8,-,N/A,,Partly Cloudy,170,2013-05-20 13:53:00
10:18 AM,73.4,66.2,78,30.07,10.0,SSW,9.2,-,N/A,,Mostly Cloudy,200,2013-05-20 14:18:00
10:53 AM,73.9,64.9,73,30.05,10.0,SW,6.9,-,N/A,,Mostly Cloudy,220,2013-05-20 14:53:00
11:32 AM,75.2,66.2,73,30.08,10.0,South,6.9,-,N/A,,Scattered Clouds,190,2013-05-20 15:32:00
11:53 AM,75.9,66.9,74,30.05,10.0,SSW,8.1,-,N/A,,Mostly Cloudy,210,2013-05-20 15:53:00
12:53 PM,77.0,66.9,71,30.05,10.0,SSW,9.2,-,N/A,,Overcast,210,2013-05-20 16:53:00
1:53 PM,77.0,66.9,71,30.04,10.0,SSW,5.8,-,N/A,,Mostly Cloudy,210,2013-05-20 17:53:00
2:53 PM,80.1,68.0,67,30.03,10.0,Variable,6.9,-,N/A,,Mostly Cloudy,0,2013-05-20 18:53:00
3:15 PM,80.6,68.0,65,30.03,10.0,South,4.6,-,N/A,,Scattered Clouds,190,2013-05-20 19:15:00
3:48 PM,78.8,68.0,69,30.03,10.0,SW,8.1,-,N/A,,Mostly Cloudy,220,2013-05-20 19:48:00
3:53 PM,79.0,68.0,69,30.01,10.0,South,8.1,-,N/A,,Mostly Cloudy,190,2013-05-20 19:53:00
4:09 PM,80.6,68.0,65,30.02,10.0,South,8.1,-,N/A,,Mostly Cloudy,190,2013-05-20 20:09:00
4:53 PM,79.0,68.0,69,30.00,10.0,SSW,8.1,-,N/A,,Scattered Clouds,210,2013-05-20 20:53:00
5:53 PM,80.1,69.1,69,29.98,10.0,SW,5.8,-,N/A,,Partly Cloudy,220,2013-05-20 21:53:00
6:53 PM,78.1,68.0,71,29.98,10.0,South,9.2,-,N/A,,Clear,180,2013-05-20 22:53:00
7:53 PM,75.9,66.9,74,29.98,10.0,South,6.9,-,N/A,,Clear,180,2013-05-20 23:53:00
8:53 PM,73.9,66.9,79,29.99,10.0,South,3.5,-,N/A,,Clear,170,2013-05-21 00:53:00
10:53 PM,70.0,66.9,90,29.99,10.0,South,4.6,-,N/A,,Clear,190,2013-05-21 02:53:00
11:53 PM,69.1,66.9,93,29.96,6.0,SSE,3.5,-,N/A,,Clear,160,2013-05-21 03:53:00